• In Hungary
  • List of Countries
  • For 7 days
  • Water Temperature
  • Satellite Maps
  • Weather Map
  • News
  • Weather Widgets
  • user-avatar
    Login

    Hourly Weather Kubyshkino

    Today, 21 June, Thursday

    Time Temperature Precipitation Wind Pressure Humidity
    00:00 +12°C° 0 mm 3 mps 739 mmHg 74%
    01:00 +11°C° 0 mm 3 mps 739 mmHg 74%
    02:00 +11°C° 0 mm 3 mps 739 mmHg 74%
    03:00 +11°C° 0 mm 3 mps 739 mmHg 74%
    04:00 +11°C° 0 mm 3 mps 739 mmHg 73%
    05:00 +12°C° 0 mm 3 mps 739 mmHg 72%
    06:00 +13°C° 0 mm 3 mps 739 mmHg 70%
    07:00 +14°C° 0 mm 3 mps 739 mmHg 68%
    08:00 +16°C° 0 mm 3 mps 739 mmHg 67%
    09:00 +18°C° 0 mm 4 mps 739 mmHg 67%
    10:00 +19°C° 0 mm 4 mps 739 mmHg 68%
    11:00 +20°C° 0 mm 4 mps 739 mmHg 68%
    12:00 +21°C° 0.1 mm 4 mps 739 mmHg 66%
    13:00 +22°C° 0.1 mm 4 mps 739 mmHg 64%
    14:00 +23°C° 0.1 mm 4 mps 738 mmHg 62%
    15:00 +23°C° 0.3 mm 4 mps 738 mmHg 63%
    16:00 +24°C° 0.3 mm 3 mps 738 mmHg 65%
    17:00 +24°C° 0.3 mm 3 mps 737 mmHg 67%
    18:00 +22°C° 0.1 mm 3 mps 737 mmHg 73%
    19:00 +20°C° 0.1 mm 2 mps 737 mmHg 78%
    20:00 +19°C° 0.1 mm 2 mps 737 mmHg 83%
    21:00 +18°C° 0 mm 2 mps 737 mmHg 86%
    22:00 +18°C° 0 mm 2 mps 737 mmHg 88%
    23:00 +17°C° 0 mm 3 mps 737 mmHg 91%

    Tomorrow, 22 June, Friday

    Time Temperature Precipitation Wind Pressure Humidity
    00:00 +17°C° 0 mm 3 mps 736 mmHg 92%
    01:00 +16°C° 0 mm 3 mps 736 mmHg 92%
    02:00 +16°C° 0 mm 3 mps 736 mmHg 93%
    03:00 +17°C° 0 mm 3 mps 735 mmHg 91%
    04:00 +17°C° 0 mm 4 mps 735 mmHg 88%
    05:00 +18°C° 0 mm 4 mps 735 mmHg 86%
    06:00 +19°C° 0.1 mm 5 mps 734 mmHg 82%
    07:00 +20°C° 0.1 mm 5 mps 734 mmHg 79%
    08:00 +22°C° 0.1 mm 6 mps 734 mmHg 75%
    09:00 +22°C° 0.2 mm 5 mps 734 mmHg 77%
    10:00 +23°C° 0.2 mm 5 mps 734 mmHg 78%
    11:00 +23°C° 0.2 mm 5 mps 733 mmHg 79%
    12:00 +22°C° 1.1 mm 5 mps 734 mmHg 84%
    13:00 +21°C° 1.1 mm 5 mps 734 mmHg 89%
    14:00 +19°C° 1.1 mm 4 mps 734 mmHg 93%
    15:00 +18°C° 0.2 mm 4 mps 734 mmHg 93%
    16:00 +16°C° 0.2 mm 3 mps 735 mmHg 92%
    17:00 +15°C° 0.2 mm 2 mps 735 mmHg 92%
    18:00 +14°C° 0 mm 2 mps 735 mmHg 92%
    19:00 +14°C° 0 mm 2 mps 736 mmHg 91%
    20:00 +14°C° 0 mm 2 mps 736 mmHg 91%
    21:00 +12°C° 0 mm 3 mps 736 mmHg 91%
    22:00 +12°C° 0 mm 3 mps 737 mmHg 92%
    23:00 +12°C° 0 mm 3 mps 737 mmHg 92%

    Day after tomorrow, 23 June, Saturday

    Time Temperature Precipitation Wind Pressure Humidity
    00:00 +13°C° 0 mm 2 mps 737 mmHg 92%
    01:00 +13°C° 0 mm 2 mps 738 mmHg 92%
    02:00 +12°C° 0 mm 2 mps 738 mmHg 91%
    03:00 +13°C° 0 mm 2 mps 738 mmHg 90%
    04:00 +13°C° 0 mm 2 mps 738 mmHg 89%
    05:00 +13°C° 0 mm 2 mps 738 mmHg 87%
    06:00 +13°C° 0.2 mm 1 mps 738 mmHg 87%
    07:00 +13°C° 0.2 mm 1 mps 739 mmHg 87%
    08:00 +13°C° 0.2 mm 1 mps 739 mmHg 87%
    09:00 +13°C° 0.4 mm 1 mps 739 mmHg 89%
    10:00 +13°C° 0.4 mm 1 mps 739 mmHg 90%
    11:00 +13°C° 0.4 mm 1 mps 739 mmHg 92%
    12:00 +12°C° 1.1 mm 1 mps 739 mmHg 93%
    13:00 +12°C° 1.1 mm 1 mps 738 mmHg 93%
    14:00 +12°C° 1.1 mm 1 mps 738 mmHg 94%
    15:00 +12°C° 0.8 mm 1 mps 738 mmHg 94%
    16:00 +12°C° 0.8 mm 1 mps 738 mmHg 94%
    17:00 +12°C° 0.8 mm 1 mps 737 mmHg 94%
    18:00 +12°C° 0.3 mm 1 mps 737 mmHg 95%
    19:00 +11°C° 0.3 mm 1 mps 737 mmHg 96%
    20:00 +11°C° 0.3 mm 1 mps 737 mmHg 97%
    21:00 +11°C° 0.1 mm 1 mps 737 mmHg 97%
    22:00 +10°C° 0.1 mm 1 mps 737 mmHg 98%
    23:00 +10°C° 0.1 mm 1 mps 737 mmHg 98%

    24 June, Sunday

    Time Temperature Precipitation Wind Pressure Humidity
    00:00 +10°C° 0.1 mm 1 mps 737 mmHg 98%
    01:00 +10°C° 0.1 mm 1 mps 737 mmHg 98%
    02:00 +9°C° 0.1 mm 1 mps 737 mmHg 98%
    03:00 +10°C° 0 mm 1 mps 737 mmHg 98%
    04:00 +10°C° 0 mm 1 mps 737 mmHg 97%
    05:00 +11°C° 0 mm 1 mps 737 mmHg 97%
    06:00 +12°C° 0.1 mm 1 mps 737 mmHg 93%
    07:00 +13°C° 0.1 mm 1 mps 737 mmHg 90%
    08:00 +15°C° 0.1 mm 1 mps 737 mmHg 86%
    09:00 +16°C° 0.3 mm 1 mps 738 mmHg 78%
    10:00 +17°C° 0.3 mm 2 mps 738 mmHg 70%
    11:00 +19°C° 0.3 mm 2 mps 738 mmHg 61%
    12:00 +19°C° 0.6 mm 2 mps 738 mmHg 64%
    13:00 +19°C° 0.6 mm 2 mps 738 mmHg 68%
    14:00 +19°C° 0.6 mm 3 mps 739 mmHg 71%
    15:00 +18°C° 0.3 mm 3 mps 739 mmHg 71%
    16:00 +18°C° 0.3 mm 2 mps 739 mmHg 71%
    17:00 +18°C° 0.3 mm 2 mps 739 mmHg 70%
    18:00 +17°C° 0.1 mm 2 mps 739 mmHg 77%
    19:00 +15°C° 0.1 mm 2 mps 740 mmHg 83%
    20:00 +14°C° 0.1 mm 1 mps 740 mmHg 90%
    21:00 +13°C° 0 mm 1 mps 740 mmHg 92%
    22:00 +12°C° 0 mm 1 mps 741 mmHg 94%
    23:00 +11°C° 0 mm 1 mps 741 mmHg 95%

    25 June, Monday

    Time Temperature Precipitation Wind Pressure Humidity
    00:00 +10°C° 0 mm 1 mps 741 mmHg 96%
    01:00 +10°C° 0 mm 1 mps 741 mmHg 96%
    02:00 +9°C° 0 mm 1 mps 741 mmHg 97%
    03:00 +10°C° 0 mm 1 mps 742 mmHg 95%
    04:00 +9°C° 0 mm 2 mps 742 mmHg 94%
    05:00 +10°C° 0 mm 2 mps 742 mmHg 93%
    06:00 +13°C° 0 mm 2 mps 742 mmHg 84%
    07:00 +14°C° 0 mm 2 mps 743 mmHg 76%
    08:00 +16°C° 0 mm 2 mps 743 mmHg 68%
    09:00 +17°C° 0.1 mm 3 mps 743 mmHg 61%
    10:00 +18°C° 0.1 mm 3 mps 743 mmHg 55%
    11:00 +20°C° 0.1 mm 4 mps 743 mmHg 49%
    12:00 +20°C° 0 mm 4 mps 743 mmHg 47%
    13:00 +20°C° 0 mm 4 mps 743 mmHg 45%
    14:00 +21°C° 0 mm 4 mps 743 mmHg 43%
    15:00 +20°C° 0 mm 4 mps 743 mmHg 46%
    16:00 +20°C° 0 mm 3 mps 743 mmHg 48%
    17:00 +19°C° 0 mm 3 mps 743 mmHg 51%
    18:00 +18°C° 0 mm 3 mps 743 mmHg 60%
    19:00 +16°C° 0 mm 2 mps 743 mmHg 69%
    20:00 +14°C° 0 mm 2 mps 743 mmHg 78%
    21:00 +13°C° 0.1 mm 2 mps 743 mmHg 84%
    22:00 +13°C° 0.1 mm 2 mps 743 mmHg 90%
    23:00 +12°C° 0.1 mm 2 mps 743 mmHg 96%

    26 June, Tuesday

    Time Temperature Precipitation Wind Pressure Humidity
    00:00 +10°C° 0 mm 2 mps 743 mmHg 97%
    01:00 +10°C° 0 mm 2 mps 743 mmHg 97%
    02:00 +10°C° 0 mm 2 mps 743 mmHg 98%
    03:00 +11°C° 0.1 mm 1 mps 743 mmHg 98%
    04:00 +11°C° 0.1 mm 1 mps 743 mmHg 97%
    05:00 +12°C° 0.1 mm 1 mps 743 mmHg 97%
    06:00 +12°C° 0.7 mm 1 mps 743 mmHg 96%
    07:00 +13°C° 0.7 mm 1 mps 743 mmHg 96%
    08:00 +13°C° 0.7 mm 1 mps 743 mmHg 95%
    09:00 +14°C° 0.4 mm 1 mps 743 mmHg 90%
    10:00 +15°C° 0.4 mm 1 mps 743 mmHg 85%
    11:00 +18°C° 0.4 mm 1 mps 743 mmHg 80%
    12:00 +18°C° 0.4 mm 2 mps 742 mmHg 75%
    13:00 +19°C° 0.4 mm 2 mps 742 mmHg 69%
    14:00 +20°C° 0.4 mm 2 mps 742 mmHg 64%
    15:00 +19°C° 0.3 mm 3 mps 742 mmHg 66%
    16:00 +19°C° 0.3 mm 3 mps 742 mmHg 69%
    17:00 +19°C° 0.3 mm 3 mps 742 mmHg 71%
    18:00 +18°C° 0.2 mm 2 mps 742 mmHg 78%
    19:00 +16°C° 0.2 mm 2 mps 742 mmHg 84%
    20:00 +15°C° 0.2 mm 2 mps 742 mmHg 90%
    21:00 +14°C° 0 mm 2 mps 742 mmHg 92%
    22:00 +13°C° 0 mm 2 mps 742 mmHg 94%
    23:00 +12°C° 0 mm 2 mps 742 mmHg 96%
    Show more